TimePST,TemperatureF,Dew PointF,Humidity,Sea Level PressureIn,VisibilityMPH,Wind Direction,Wind SpeedMPH,Gust SpeedMPH,PrecipitationIn,Events,Conditions,WindDirDegrees,DateUTC
12:15 AM,41.5,36.5,82,30.23,10.0,East,4.6,-,N/A,,Overcast,90,2013-12-01 08:15:00
12:35 AM,40.8,36.3,84,30.23,10.0,ESE,9.2,-,N/A,,Overcast,110,2013-12-01 08:35:00
12:55 AM,40.1,36.5,87,30.22,10.0,East,10.4,-,N/A,,Overcast,90,2013-12-01 08:55:00
1:15 AM,41.7,36.5,82,30.22,10.0,East,6.9,-,N/A,,Overcast,100,2013-12-01 09:15:00
1:35 AM,42.8,36.9,80,30.22,10.0,South,8.1,-,N/A,,Overcast,190,2013-12-01 09:35:00
1:55 AM,41.0,36.1,83,30.21,10.0,ESE,5.8,-,N/A,,Overcast,110,2013-12-01 09:55:00
2:15 AM,41.2,36.1,82,30.20,10.0,ESE,6.9,-,N/A,,Overcast,110,2013-12-01 10:15:00
2:35 AM,45.7,36.5,70,30.21,10.0,South,9.2,-,N/A,,Overcast,180,2013-12-01 10:35:00
2:55 AM,45.5,36.9,72,30.20,10.0,South,6.9,-,N/A,,Light Drizzle,190,2013-12-01 10:55:00
3:15 AM,45.7,37.4,73,30.19,10.0,SSW,10.4,-,N/A,,Drizzle,210,2013-12-01 11:15:00
3:35 AM,44.8,37.6,76,30.19,10.0,SW,6.9,-,N/A,,Drizzle,220,2013-12-01 11:35:00
3:55 AM,45.1,38.5,77,30.18,10.0,SSW,15.0,19.6,0.01,,Drizzle,200,2013-12-01 11:55:00
4:15 AM,45.1,38.1,76,30.17,10.0,South,16.1,21.9,N/A,,Light Drizzle,190,2013-12-01 12:15:00
4:35 AM,45.5,37.8,74,30.16,10.0,South,16.1,25.3,N/A,,Overcast,190,2013-12-01 12:35:00
4:55 AM,46.2,37.8,72,30.14,10.0,South,13.8,23.0,N/A,,Overcast,190,2013-12-01 12:55:00
5:15 AM,46.4,38.3,73,30.14,10.0,SSW,12.7,16.1,N/A,,Overcast,200,2013-12-01 13:15:00
5:35 AM,45.7,37.9,74,30.14,10.0,South,15.0,23.0,N/A,,Overcast,190,2013-12-01 13:35:00
5:55 AM,46.4,37.9,72,30.13,10.0,SSW,15.0,-,N/A,,Overcast,200,2013-12-01 13:55:00
6:15 AM,46.8,38.1,72,30.13,10.0,SSW,10.4,20.7,N/A,,Overcast,210,2013-12-01 14:15:00
6:35 AM,46.8,37.9,71,30.12,10.0,South,18.4,25.3,N/A,,Overcast,190,2013-12-01 14:35:00
6:55 AM,46.8,37.9,71,30.12,10.0,SSW,15.0,21.9,N/A,,Overcast,200,2013-12-01 14:55:00
7:15 AM,46.9,38.1,71,30.12,10.0,SSW,19.6,25.3,N/A,,Overcast,200,2013-12-01 15:15:00
7:35 AM,47.7,38.5,70,30.11,10.0,SSW,18.4,25.3,N/A,,Overcast,200,2013-12-01 15:35:00
7:55 AM,47.5,38.7,71,30.12,10.0,SW,16.1,21.9,N/A,,Overcast,220,2013-12-01 15:55:00
8:15 AM,48.4,39.2,71,30.13,10.0,SW,20.7,27.6,N/A,,Overcast,230,2013-12-01 16:15:00
8:35 AM,48.2,39.6,72,30.14,10.0,SW,16.1,-,N/A,,Overcast,220,2013-12-01 16:35:00
8:55 AM,47.7,40.3,76,30.14,10.0,SSW,16.1,23.0,N/A,Rain,Light Rain,200,2013-12-01 16:55:00
9:15 AM,48.2,40.5,75,30.12,10.0,SW,10.4,21.9,N/A,,Overcast,220,2013-12-01 17:15:00
9:35 AM,49.5,40.6,72,30.12,10.0,SW,20.7,25.3,N/A,,Overcast,220,2013-12-01 17:35:00
9:55 AM,50.5,41.0,70,30.12,10.0,SW,20.7,26.5,N/A,,Overcast,220,2013-12-01 17:55:00
10:15 AM,50.9,41.0,69,30.11,10.0,SW,23.0,32.2,N/A,,Overcast,220,2013-12-01 18:15:00
10:35 AM,51.8,41.5,68,30.10,10.0,SW,20.7,25.3,N/A,,Overcast,220,2013-12-01 18:35:00
10:55 AM,52.2,41.7,68,30.09,10.0,SW,19.6,26.5,N/A,,Overcast,220,2013-12-01 18:55:00
11:15 AM,52.5,41.4,66,30.09,10.0,SW,17.3,28.8,N/A,,Overcast,230,2013-12-01 19:15:00
11:35 AM,52.7,41.2,65,30.08,10.0,SW,16.1,26.5,N/A,,Overcast,230,2013-12-01 19:35:00
11:55 AM,53.4,41.2,63,30.07,10.0,SW,16.1,26.5,N/A,,Overcast,230,2013-12-01 19:55:00
12:15 PM,54.7,41.4,61,30.07,10.0,SW,11.5,-,N/A,,Overcast,230,2013-12-01 20:15:00
12:35 PM,55.8,41.2,58,30.06,10.0,WSW,9.2,-,N/A,,Overcast,250,2013-12-01 20:35:00
12:55 PM,55.6,41.0,58,30.05,10.0,WSW,12.7,17.3,N/A,,Overcast,240,2013-12-01 20:55:00
1:15 PM,55.6,40.6,57,30.04,10.0,WSW,17.3,24.2,N/A,,Overcast,240,2013-12-01 21:15:00
1:35 PM,55.8,40.3,56,30.04,10.0,WSW,23.0,27.6,N/A,,Overcast,250,2013-12-01 21:35:00
1:55 PM,56.7,39.4,52,30.03,10.0,West,19.6,24.2,N/A,,Overcast,260,2013-12-01 21:55:00
2:15 PM,57.4,38.8,50,30.03,10.0,WSW,12.7,28.8,N/A,,Overcast,250,2013-12-01 22:15:00
2:35 PM,56.7,39.4,52,30.02,10.0,West,17.3,23.0,N/A,,Overcast,260,2013-12-01 22:35:00
2:55 PM,58.1,38.1,47,30.01,10.0,West,16.1,35.7,N/A,,Overcast,260,2013-12-01 22:55:00
3:15 PM,57.0,38.5,50,30.02,10.0,West,15.0,26.5,N/A,,Overcast,260,2013-12-01 23:15:00
3:35 PM,56.5,38.7,51,30.01,10.0,WSW,17.3,27.6,N/A,,Mostly Cloudy,240,2013-12-01 23:35:00
3:55 PM,55.9,38.5,52,29.99,10.0,WSW,16.1,21.9,N/A,,Mostly Cloudy,250,2013-12-01 23:55:00
4:15 PM,55.9,38.3,52,30.00,10.0,WSW,18.4,26.5,N/A,,Mostly Cloudy,240,2013-12-02 00:15:00
4:35 PM,56.3,37.6,50,29.99,10.0,WSW,15.0,26.5,N/A,,Mostly Cloudy,250,2013-12-02 00:35:00
4:55 PM,55.6,37.4,50,29.99,10.0,WSW,21.9,29.9,N/A,,Mostly Cloudy,250,2013-12-02 00:55:00
5:15 PM,55.6,37.8,51,29.99,10.0,WSW,21.9,28.8,N/A,,Mostly Cloudy,240,2013-12-02 01:15:00
5:35 PM,54.9,37.9,53,29.98,10.0,SW,21.9,25.3,N/A,,Mostly Cloudy,230,2013-12-02 01:35:00
5:55 PM,54.9,37.2,51,29.97,10.0,SW,18.4,33.4,N/A,,Mostly Cloudy,230,2013-12-02 01:55:00
6:15 PM,54.5,36.7,51,29.96,10.0,WSW,21.9,32.2,N/A,,Mostly Cloudy,240,2013-12-02 02:15:00
6:35 PM,54.0,36.3,51,29.94,10.0,WSW,25.3,33.4,N/A,,Mostly Cloudy,240,2013-12-02 02:35:00
6:55 PM,53.8,35.6,50,29.95,10.0,SW,18.4,29.9,N/A,,Mostly Cloudy,230,2013-12-02 02:55:00
7:15 PM,53.1,35.2,51,29.94,10.0,SW,21.9,28.8,N/A,,Mostly Cloudy,230,2013-12-02 03:15:00
7:35 PM,53.1,34.9,50,29.94,10.0,SW,24.2,34.5,N/A,,Mostly Cloudy,230,2013-12-02 03:35:00
7:55 PM,53.6,34.0,47,29.94,10.0,SW,20.7,33.4,N/A,,Mostly Cloudy,230,2013-12-02 03:55:00
8:15 PM,52.5,34.5,50,29.92,10.0,SW,20.7,29.9,N/A,,Scattered Clouds,220,2013-12-02 04:15:00
8:35 PM,51.8,34.5,52,29.92,10.0,SW,18.4,33.4,N/A,,Scattered Clouds,220,2013-12-02 04:35:00
8:55 PM,52.2,34.5,51,29.92,10.0,SW,25.3,31.1,N/A,,Mostly Cloudy,230,2013-12-02 04:55:00
9:15 PM,51.8,34.3,51,29.92,10.0,SW,23.0,28.8,N/A,,Mostly Cloudy,220,2013-12-02 05:15:00
9:35 PM,52.2,34.2,50,29.91,10.0,SW,23.0,28.8,N/A,,Mostly Cloudy,220,2013-12-02 05:35:00
9:55 PM,52.0,34.2,51,29.91,10.0,SSW,24.2,29.9,N/A,,Overcast,210,2013-12-02 05:55:00
10:15 PM,51.8,34.3,51,29.90,10.0,SW,23.0,31.1,N/A,,Overcast,220,2013-12-02 06:15:00
10:35 PM,51.1,34.3,53,29.90,10.0,SW,20.7,32.2,N/A,,Overcast,220,2013-12-02 06:35:00
10:55 PM,50.9,34.3,53,29.90,10.0,SW,23.0,31.1,N/A,,Overcast,230,2013-12-02 06:55:00
11:15 PM,50.9,34.0,52,29.89,10.0,SW,21.9,31.1,N/A,,Mostly Cloudy,230,2013-12-02 07:15:00
11:35 PM,50.9,34.0,52,29.90,10.0,SW,24.2,27.6,N/A,,Overcast,230,2013-12-02 07:35:00
11:55 PM,50.9,34.0,52,29.90,10.0,SW,20.7,29.9,N/A,,Overcast,230,2013-12-02 07:55:00